Regional Weather Roundup
Issued by NWS

Home | Current Version | Previous Version | Text Only | Print | Product List | Glossary On
Versions: 1 2 3 4 5 6 7 8 9 10 11 12 13 14 15 16 17 18 19 20 21 22 23 24 25 26 27 28 29 30 31 32 33 34 35 36 37 38 39 40 41 42 43 44 45 46 47 48 49 50
000
ASUS43 KFSD 260310
RWRSD

WEATHER ROUNDUP FOR SOUTH DAKOTA
NATIONAL WEATHER SERVICE SIOUX FALLS SD
1000 PM CDT TUE JUL 25 2017

NOTE: "FAIR" INDICATES FEW OR NO CLOUDS BELOW 12,000 FEET WITH NO
SIGNIFICANT WEATHER AND/OR OBSTRUCTIONS TO VISIBILITY.


SDZ001>005-009-010-012>017-260400-
NORTHWEST AND NORTH CENTRAL SOUTH DAKOTA

CITY           SKY/WX    TMP DP  RH WIND       PRES   REMARKS
BUFFALO          N/A     75  53  46 NW5       30.02R
FAITH            N/A     74  53  48 E7        30.05R
MOBRIDGE       CLOUDY    74  59  59 NE7       29.98R
$$

SDZ012>016-024>037-041>051-057-063-072>074-260400-
SOUTHWEST AND SOUTH CENTRAL SOUTH DAKOTA

CITY           SKY/WX    TMP DP  RH WIND       PRES   REMARKS
RAPID CTY ARPT CLOUDY    75  55  49 N16       30.08R
PIERRE         CLOUDY    79  65  62 NE17      29.97R
CUSTER         CLOUDY    68  57  68 NE15      30.23R
ELLSWORTH AFB  PTCLDY    77  55  46 N9        30.09R
PHILIP         PTCLDY    79  63  57 NE12      30.01R
PINE RIDGE     MOCLDY    77  62  59 NE8       30.03R
SPEARFISH      MOCLDY    70  55  60 W5        30.17R
WINNER         FAIR      74  67  78 NE9       29.93F
$$

SDZ004>011-016>023-039-040-260400-
NORTHEAST SOUTH DAKOTA

CITY           SKY/WX    TMP DP  RH WIND       PRES   REMARKS
ABERDEEN       CLOUDY    77  71  82 NE10      29.97R
WATERTOWN      CLOUDY    74  67  78 S8        29.97R
BROOKINGS      LGT RAIN  72  68  87 SE15      29.96S
SISSETON         N/A     74  72  93 CALM      29.96R
$$

SDZ017-020-022-023-036>040-048>070-260400-
SOUTHEAST SOUTH DAKOTA

CITY           SKY/WX    TMP DP  RH WIND       PRES   REMARKS
SIOUX FALLS    CLOUDY    80  71  74 NE14      29.96R
HURON          CLOUDY    73  69  87 SE10      30.00R
CHAMBERLAIN    LGT RAIN  72  71  97 N14G22    29.95R
MITCHELL       TSTM      70  70 100 NE5       30.04R FOG
YANKTON        CLOUDY    84  68  58 SE6       29.92R
$$

ABBREVIATIONS USED IN REMARKS
   TC - TEMPERATURE IN CELSIUS
  WCI - WIND CHILL INDEX
   HX - HEAT INDEX
  VSB - VISIBILITY




USA.gov is the U.S. government's official web portal to all federal, state and local government web resources and services.